COSMOS 1275 DEB

Satellite information

Favourite Embed

Satellite Type and Status

DEBRISIN ORBIT

Key statistics

Satellite COSMOS 1275 DEB at a glance.

Uptime

16166

Days in orbit

Revolutions

≈ 13.8

Per day

Orbit

LEO

Low Earth Orbit

Inclination

82.8

Latest

Satellite identification and parameters

Extended collection of information and parameters for COSMOS 1275 DEB.

Object identification

Identified? True

Debris? True

Object name: COSMOS 1275 DEB

International designator: 1981-053GL

Object number (NORAD): 13490

Object ID (CCSDS): 13490

Country: COMMONWEALTH OF INDEPENDENT STATES (CIS)

Current information (Y/N): Y

RCS size: SMALL

Orbital parameters

Period: 104.547 minutes

Inclination: 82.8367 deg

SMA: 7351.369 km

Apoapsis: 1022.52 km

Periapsis: 923.949 km

RAAN: 321.5739 deg

Eccentricy: 0.00670424

Argument of periapsis: 166.1563 deg

Mean anomaly: 346.3131 deg

Mean motion: 13.77369264 rev/day

Mean motion (dot): 0.00000448 rev/day2

B* drag term: 0.00042891736 1/REarth

Two-line elements (TLE)

Creation date: Sept. 6, 2025, 2:09 a.m.

Reference frame: TEME

Reference center: EARTH

Epoch: Sept. 5, 2025, 3:48 p.m. UTC

TLE line 0: 0 COSMOS 1275 DEB

TLE line 1: 1 13490U 81053GL 25248.65865312 .00000448 00000-0 42892-3 0 9995

TLE line 2: 2 13490 82.8367 321.5739 0067042 166.1563 346.3131 13.77369264170007

Live tracking on map

Real-time ground track for satellite COSMOS 1275 DEB.

In-orbit conjunctions

A list of the most updated potential collisions computed for object COSMOS 1275 DEB.

Target Orbit TCA Probability of collision Miss distance Type
FENGYUN 1C DEB SSO 2024-11-07 23:09:45 0.000712696 219.0 (m) DEBRIS
SERVIS 1 SSO 2024-10-27 14:13:37 0.0001561794 479.0 (m) PAYLOAD
COSMOS 475 LEO 2024-08-08 14:04:04 0.0002002207 69.0 (m) PAYLOAD

Associated space launch

Navigation satellite providing location information for the Tsiklon-B navigation system

COSMOS 1275 DEB was lifted into orbit during the mission ‘Kosmos-3M | Parus 27’, on board a Kosmos-3M space rocket.

The launch took place on June 4, 1981, 3:41 p.m. from 132/2.

For more information about the launch, click the button.

Launch to space Kosmos-3M | Parus 27
Kosmos-3M | Parus 27

Agency: N/A

Status: Launch Successful

Launch date: June 4, 1981, 3:41 p.m. UTC

Rocket: Kosmos-3M

Launch pad: 132/2

Location: Plesetsk Cosmodrome, Russian Federation

...

Latest news about this satellite

There are no fresh news available about this satellite. Check back as we update our databases every day.


Newsletter sign-up

Weekly statistics, charts and insights to help you stay on top of the space industry.